Weather History for Storm Lake, IA

Change the Weather History Date:

Saturday, January 28, 2012

  Actual Average Record
Temperature  
Mean Temperature 24 °F -  
Max Temperature 33 °F 27 °F 46 °F (2006)
Min Temperature 15 °F 13 °F -16 °F (1997)
Degree Days  
Heating Degree Days 41    
Moisture  
Dew Point 17 °F    
Average Humidity 77    
Maximum Humidity 92    
Minimum Humidity 59    
Precipitation  
Precipitation 0.00 in - - ()
Sea Level Pressure  
Sea Level Pressure 30.08 in    
Wind  
Wind Speed 14 mph (West)    
Max Wind Speed 26 mph    
Max Gust Speed 33 mph    
Visibility 10 miles    
Events      
Averages and records for this station are not official NWS values.
T = Trace of Precipitation, MM = Missing Value Source: NWS Daily Summary

Daily Weather History Graph

Daily Weather History Graph

Search for Another Location

Airport:

Trip Planner

Search our weather history database for the weather conditions in past years. The results will help you decide how hot, cold, wet, or windy it might be!

Date:

Astronomy

Jan. 28, 2012 Rise Set
Actual Time 7:39 AM CST 5:28 PM CST
Civil Twilight 7:09 AM CST 5:58 PM CST
Nautical Twilight 6:35 AM CST 6:33 PM CST
Astronomical Twilight 6:01 AM CST 7:06 PM CST
Moon 9:53 AM CST (1/28) 11:27 PM CST (1/28)
Length of Visible Light 10h 49m
Length of Day
9h 49m
Waxing Crescent, 28% of the Moon is Illuminated
Jan 28
Waxing Crescent
Jan 30
First Quarter
Feb 7
Full
Feb 14
Last Quarter
Feb 21
New

Hourly Weather History & Observations

Time (CST) Temp. Windchill Dew Point Humidity Pressure Visibility Wind Dir Wind Speed Gust Speed Precip Events Conditions
12:15 AM 19.9 °F 6.2 °F 15.4 °F 83% 30.08 in 10.0 mi WNW 15.0 mph - N/A   Clear
12:35 AM 19.2 °F 6.4 °F 14.9 °F 83% 30.08 in 10.0 mi West 12.7 mph - N/A   Clear
12:55 AM 18.5 °F 4.3 °F 14.9 °F 86% 30.08 in 10.0 mi WNW 15.0 mph - N/A   Clear
1:15 AM 18.5 °F 5.5 °F 14.9 °F 86% 30.08 in 10.0 mi WNW 12.7 mph - N/A   Clear
1:35 AM 18.5 °F 5.5 °F 14.7 °F 85% 30.08 in 10.0 mi WNW 12.7 mph - N/A   Scattered Clouds
1:55 AM 20.1 °F 8.1 °F 15.8 °F 83% 30.07 in 10.0 mi WNW 11.5 mph - N/A   Overcast
2:15 AM 19.4 °F 6.6 °F 15.8 °F 86% 30.07 in 10.0 mi West 12.7 mph - N/A   Scattered Clouds
2:35 AM 18.5 °F 5.5 °F 15.4 °F 88% 30.08 in 10.0 mi West 12.7 mph - N/A   Clear
2:55 AM 17.8 °F 4.0 °F 15.1 °F 89% 30.09 in 10.0 mi West 13.8 mph - N/A   Clear
3:15 AM 17.6 °F 5.0 °F 15.3 °F 91% 30.09 in 10.0 mi West 11.5 mph - N/A   Clear
3:35 AM 18.3 °F 5.2 °F 16.3 °F 92% 30.09 in 10.0 mi West 12.7 mph - N/A   Clear
3:55 AM 18.3 °F 5.2 °F 16.2 °F 91% 30.09 in 10.0 mi West 12.7 mph - N/A   Clear
4:15 AM 18.5 °F 3.8 °F 16.5 °F 92% 30.08 in 10.0 mi West 16.1 mph - N/A   Clear
4:35 AM 18.9 °F 5.3 °F 16.3 °F 90% 30.08 in 10.0 mi West 13.8 mph - N/A   Clear
4:55 AM 19.2 °F 5.8 °F 16.5 °F 89% 30.07 in 10.0 mi West 13.8 mph - N/A   Clear
5:15 AM 19.2 °F 5.8 °F 16.5 °F 89% 30.07 in 10.0 mi West 13.8 mph - N/A   Clear
5:35 AM 19.4 °F 6.6 °F 16.5 °F 89% 30.07 in 10.0 mi West 12.7 mph - N/A   Clear
5:55 AM 18.5 °F 4.9 °F 16.0 °F 90% 30.07 in 10.0 mi West 13.8 mph - N/A   Clear
6:15 AM 17.6 °F 3.7 °F 14.9 °F 89% 30.08 in 10.0 mi West 13.8 mph - N/A   Clear
6:35 AM 16.7 °F 3.8 °F 14.5 °F 91% 30.08 in 10.0 mi West 11.5 mph - N/A   Clear
6:55 AM 17.2 °F 6.0 °F 14.5 °F 89% 30.09 in 10.0 mi West 9.2 mph - N/A   Clear
7:15 AM 15.8 °F 3.4 °F 13.5 °F 90% 30.09 in 10.0 mi WNW 10.4 mph - N/A   Clear
7:35 AM 17.2 °F 3.9 °F 14.0 °F 87% 30.09 in 10.0 mi WNW 12.7 mph - N/A   Clear
7:55 AM 17.1 °F 5.0 °F 13.5 °F 86% 30.10 in 10.0 mi West 10.4 mph - N/A   Clear
8:15 AM 16.7 °F 4.5 °F 13.3 °F 86% 30.10 in 10.0 mi West 10.4 mph - N/A   Clear
8:35 AM 18.0 °F 6.9 °F 14.0 °F 84% 30.10 in 10.0 mi West 9.2 mph - N/A   Clear
8:55 AM 19.2 °F 8.4 °F 15.3 °F 85% 30.10 in 10.0 mi WNW 9.2 mph - N/A   Clear
9:15 AM 20.8 °F 10.4 °F 15.8 °F 81% 30.10 in 10.0 mi West 9.2 mph - N/A   Clear
9:35 AM 22.3 °F 12.2 °F 17.2 °F 81% 30.11 in 10.0 mi West 9.2 mph - N/A   Clear
9:55 AM 24.1 °F 14.4 °F 18.1 °F 78% 30.11 in 10.0 mi West 9.2 mph - N/A   Clear
10:15 AM 25.9 °F 16.0 °F 19.2 °F 76% 30.11 in 10.0 mi West 10.4 mph - N/A   Clear
10:35 AM 27.1 °F 15.9 °F 19.0 °F 72% 30.11 in 10.0 mi West 13.8 mph - N/A   Clear
10:55 AM 27.9 °F 16.3 °F 18.5 °F 68% 30.11 in 10.0 mi West 15.0 mph - N/A   Clear
11:15 AM 28.4 °F 18.5 °F 18.5 °F 66% 30.10 in 10.0 mi West 11.5 mph - N/A   Clear
11:35 AM 29.7 °F 19.1 °F 18.9 °F 64% 30.09 in 10.0 mi West 13.8 mph - N/A   Clear
11:55 AM 30.4 °F 19.1 °F 19.6 °F 64% 30.09 in 10.0 mi West 16.1 mph - N/A   Clear
12:15 PM 30.4 °F 19.5 °F 19.4 °F 64% 30.08 in 10.0 mi West 15.0 mph - N/A   Clear
12:35 PM 31.5 °F 19.4 °F 19.6 °F 62% 30.08 in 10.0 mi West 19.6 mph 23.0 mph N/A   Clear
12:55 PM 31.8 °F 20.2 °F 19.8 °F 61% 30.07 in 10.0 mi West 18.4 mph - N/A   Clear
1:15 PM 32.0 °F 19.5 °F 19.2 °F 59% 30.06 in 10.0 mi West 21.9 mph - N/A   Clear
1:35 PM 32.2 °F 19.7 °F 19.8 °F 60% 30.06 in 10.0 mi West 21.9 mph 26.5 mph N/A   Clear
1:55 PM 32.7 °F 20.7 °F 20.5 °F 61% 30.06 in 10.0 mi West 20.7 mph - N/A   Clear
2:15 PM 32.9 °F 21.0 °F 20.7 °F 61% 30.06 in 10.0 mi West 20.7 mph 28.8 mph N/A   Clear
2:35 PM 33.1 °F 20.9 °F 20.7 °F 60% 30.06 in 10.0 mi West 21.9 mph 25.3 mph N/A   Clear
2:55 PM 32.9 °F 20.1 °F 19.9 °F 59% 30.05 in 10.0 mi West 24.2 mph - N/A   Clear
3:15 PM 33.1 °F 20.3 °F 20.8 °F 61% 30.06 in 10.0 mi WNW 24.2 mph 28.8 mph N/A   Clear
3:35 PM 32.9 °F 19.6 °F 20.5 °F 60% 30.06 in 10.0 mi WNW 26.5 mph 33.4 mph N/A   Clear
3:55 PM 32.9 °F 20.1 °F 20.7 °F 61% 30.06 in 10.0 mi West 24.2 mph 31.1 mph N/A   Clear
4:15 PM 32.0 °F 20.1 °F 21.2 °F 64% 30.06 in 10.0 mi West 19.6 mph - N/A   Clear
4:35 PM 32.0 °F 19.8 °F 20.8 °F 63% 30.06 in 10.0 mi West 20.7 mph 27.6 mph N/A   Clear
4:55 PM 31.6 °F 20.4 °F 21.0 °F 65% 30.06 in 10.0 mi West 17.3 mph 21.9 mph N/A   Clear
5:15 PM 30.7 °F 20.9 °F 21.0 °F 67% 30.06 in 10.0 mi West 12.7 mph - N/A   Clear
5:35 PM 30.2 °F 20.2 °F 20.7 °F 68% 30.06 in 10.0 mi West 12.7 mph - N/A   Clear
5:55 PM 28.8 °F 20.2 °F 20.3 °F 71% 30.06 in 10.0 mi West 9.2 mph - N/A   Clear
6:15 PM 26.8 °F 18.5 °F 19.8 °F 75% 30.06 in 10.0 mi West 8.1 mph - N/A   Clear
6:35 PM 26.4 °F 17.3 °F 19.2 °F 74% 30.06 in 10.0 mi West 9.2 mph - N/A   Clear
6:55 PM 26.6 °F 17.5 °F 19.0 °F 73% 30.05 in 10.0 mi West 9.2 mph - N/A   Clear
7:15 PM 26.4 °F 16.6 °F 18.5 °F 72% 30.05 in 10.0 mi West 10.4 mph - N/A   Clear
7:35 PM 26.1 °F 16.8 °F 18.5 °F 73% 30.05 in 10.0 mi West 9.2 mph - N/A   Mostly Cloudy
7:55 PM 25.7 °F 16.4 °F 18.7 °F 75% 30.04 in 10.0 mi West 9.2 mph - N/A   Mostly Cloudy
8:15 PM 25.7 °F 17.1 °F 17.6 °F 71% 30.03 in 10.0 mi WSW 8.1 mph - N/A   Clear
8:35 PM 25.5 °F 16.2 °F 17.4 °F 71% 30.02 in 10.0 mi WSW 9.2 mph - N/A   Clear
8:55 PM 26.2 °F 17.8 °F 17.1 °F 68% 30.02 in 10.0 mi West 8.1 mph - N/A   Clear
9:15 PM 26.6 °F 16.8 °F 17.1 °F 67% 30.02 in 10.0 mi WSW 10.4 mph - N/A   Clear
9:35 PM 28.0 °F 16.5 °F 17.4 °F 64% 30.01 in 10.0 mi West 15.0 mph - N/A   Clear
9:55 PM 28.8 °F 17.5 °F 17.4 °F 63% 30.01 in 10.0 mi West 15.0 mph - N/A   Clear
10:15 PM 28.4 °F 17.5 °F 17.6 °F 64% 30.01 in 10.0 mi West 13.8 mph - N/A   Clear
10:35 PM 27.5 °F 16.8 °F 18.5 °F 69% 30.01 in 10.0 mi West 12.7 mph - N/A   Clear
10:55 PM 28.4 °F 16.2 °F 18.5 °F 66% 30.01 in 10.0 mi West 17.3 mph - N/A   Mostly Cloudy
11:15 PM 28.8 °F 17.5 °F 19.0 °F 67% 30.01 in 10.0 mi WNW 15.0 mph - N/A   Scattered Clouds
11:35 PM 28.4 °F 16.2 °F 19.0 °F 68% 30.02 in 10.0 mi WNW 17.3 mph - N/A   Scattered Clouds